SCP
0 0 -0 -0 -0 -0 -0 0 0 0 0 -0 0 0 -0 0 0 0 0 0 0 0 0 0 0 0 0 0 0 0 0 0 0
0 -0 0 -0 -0 -0 -0 0 0 0 0 -0 -0 0 0 0 0 0 0 0 0 0 0 0 0 0 0 0 0 0 0 0 0
0 0 0 -0 0 0 -0 -0 -0 0 0 0 0 0 0 0 0 0 0 0 0 0 0 0 0 0 0 0 0 0 0 0 0
0 0 0 0 0 0 0 0 -0 0 0 0 0 0 0 0 0 0 0 0 0 0 0 0 0 0 0 0 0 0 0 0 0
0 0 0 0 0 0 0 -0 0 0 0 0 0 0 0 0 0 0 0 0 0 0 0 0 0 0 0 0 0 0 0 0 0
0 0 0 0 0 0 0 0 0 0 0 0 0 0 0 0 0 0 0 0 0 0 0 0 0 0 -0 -0 0 0 0 0 0
0 0 0 0 0 0 0 0 0 0 0 0 0 0 0 0 0 0 0 0 0 0 0 0 0 0 0 0 0 0 0 0 0
0 0 0 0 0 0 0 0 0 0 0 0 0 0 0 0 0 0 0 0 0 0 0 0 0 0 0 0 0 0 0 0 0
0 0 0 0 0 0 0 0 0 0 0 0 0 0 0 0 0 0 0 0 0 0 0 0 0 0 0 0 0 0 0 0 0
0 0 0 0 0 0 0 0 0 0 0 0 1 0 0 0 1 1 1 1 0 0 0 1 0 0 0 0 0 0 0 0 0
0 0 0 0 0 0 0 0 0 0 0 0 0 0 0 0 0 1 1 1 1 1 1 1 1 1 1 0 1 0 0 0 0
0 0 0 0 0 0 0 0 0 0 0 0 1 0 0 0 0 1 2 2 1 2 1 1 1 1 1 1 1 0 0 0 0
0 0 0 0 0 0 0 0 0 0 0 0 0 1 0 0 0 1 1 2 2 1 1 1 1 1 1 1 1 0 0 0 1
0 0 0 0 0 0 0 0 0 0 0 0 0 0 1 1 1 1 1 1 2 2 2 2 2 2 2 2 1 0 0 0 1
0 0 0 0 0 0 0 0 0 0 0 0 0 0 1 0 0 1 1 1 1 2 3 3 3 1 1 0 0 0 0 0 0
0 0 0 0 0 0 0 0 0 0 0 1 0 0 0 0 0 0 0 0 0 0 0 0 0 0 0 0 0 0 0 0 0
0 0 0 0 0 0 0 0 0 0 0 0 0 0 0 0 0 0 0 0 0 0 0 0 0 0 0 0 0 0 0 0 0
-0 0 0 0 0 0 0 0 0 0 0 0 0 0 0 0 0 0 0 0 0 0 0 0 0 0 0 0 0 0 0 0 0
0 0 0 0 0 0 0 0 0 0 0 0 0 0 0 0 0 0 0 0 0 0 0 0 0 0 0 0 0 0 0 0 0
0 0 0 0 0 0 0 0 0 0 0 0 0 0 0 0 0 0 0 0 0 0 0 0 0 0 0 0 0 0 0 0 0
Wind_Speed_500mb
24 39 42 42 46 44 42 40 41 41 40 38 37 35 32 29 33 24 20 20 20 17 18 18 23 23 17 18 19 19 20 15 10
8 25 39 43 41 45 45 43 44 43 40 38 39 37 37 34 32 31 26 26 24 19 23 21 19 22 21 18 24 23 19 14 14
9 4 14 33 40 42 43 43 44 41 40 41 40 36 36 35 33 30 30 27 30 25 22 24 24 22 22 23 23 22 24 18 18
8 6 3 16 30 41 43 41 42 40 40 41 41 40 38 37 32 32 31 31 31 32 32 29 29 30 28 24 25 27 22 20 20
10 8 3 11 19 29 38 43 42 40 39 42 43 41 39 39 39 36 35 35 36 34 34 38 36 31 29 28 26 29 30 25 19
5 7 7 3 12 21 30 37 42 39 39 39 37 37 39 39 40 41 43 42 39 36 37 37 36 37 37 31 30 26 29 33 28
4 5 5 5 8 14 24 30 35 35 34 35 38 38 38 42 44 45 44 43 45 41 41 45 44 40 41 36 36 31 29 29 29
9 5 5 6 6 9 15 19 26 32 35 35 38 43 41 44 45 46 43 45 48 45 44 45 49 47 39 37 36 34 29 26 26
13 10 4 2 5 8 5 10 13 20 30 36 38 44 51 51 44 43 50 46 46 50 48 48 46 52 46 41 40 39 41 33 29
13 9 8 4 1 1 3 4 12 14 17 21 31 47 47 41 49 56 61 53 47 49 50 50 49 46 48 48 45 47 48 40 39
15 14 5 5 4 5 6 8 10 17 23 26 29 33 37 40 46 53 57 59 55 47 46 50 55 51 47 44 45 53 54 51 48
12 11 8 7 8 11 14 17 18 21 24 29 33 38 37 37 40 51 57 62 57 54 49 50 51 54 56 52 46 53 52 47 44
10 9 7 8 12 12 15 18 20 27 31 32 37 33 34 33 36 43 54 59 61 52 46 48 45 47 53 53 45 53 47 43 43
5 10 13 13 14 17 18 20 27 28 28 29 32 33 34 30 33 41 50 50 50 56 52 48 53 48 51 50 51 45 44 44 44
18 21 21 19 17 20 19 19 23 29 27 24 26 26 27 25 24 33 34 38 43 47 52 56 55 55 53 54 51 48 44 41 36
20 22 23 21 20 21 21 20 25 33 26 21 26 23 25 20 26 29 29 25 25 31 42 51 56 57 55 53 50 44 39 34 28
16 19 22 22 21 22 23 21 28 29 23 22 24 25 29 22 26 18 18 20 20 26 37 41 39 38 43 48 47 42 38 35 33
18 20 22 23 23 23 24 24 27 22 21 24 26 28 27 26 23 21 22 24 26 29 32 35 38 43 49 50 52 45 40 40 41
20 22 21 22 22 24 25 22 26 22 20 22 23 29 28 25 20 14 12 12 15 15 23 34 40 42 49 54 50 46 49 46 45
22 19 19 19 23 26 26 23 24 17 19 20 21 31 25 21 18 13 7 12 21 29 26 14 12 18 27 41 49 52 55 51 41
Wind_Direction_500mb
233 218 218 217 216 213 212 208 206 204 207 208 212 220 220 215 212 213 206 211 207 203 209 219 218 225 235 217 209 215 225 232 229
206 219 218 218 216 216 217 215 211 208 207 212 210 216 222 221 222 214 215 212 217 222 215 215 220 218 221 220 227 233 238 228 243
100 147 211 216 221 219 219 221 220 217 216 215 211 208 217 220 222 229 225 221 220 220 218 220 217 221 228 228 232 236 240 235 252
88 95 184 219 220 221 222 220 217 221 213 213 211 211 211 216 217 221 227 226 230 234 240 234 232 239 231 233 232 232 237 229 227
69 40 306 235 218 214 216 216 215 215 217 212 214 213 213 220 228 219 222 228 231 235 234 242 240 238 236 240 230 237 237 240 240
85 36 16 141 197 208 212 210 209 213 218 220 216 219 220 222 226 226 226 226 229 230 234 235 239 239 243 240 233 242 245 245 240
134 69 68 119 157 196 205 206 208 213 217 224 222 221 225 226 229 231 232 231 231 233 234 239 237 241 243 241 233 243 251 246 232
175 156 103 108 156 178 194 206 212 223 228 229 226 223 228 234 237 234 233 233 235 238 236 240 237 239 241 240 237 242 249 236 234
178 163 164 133 114 119 162 202 243 254 256 251 248 246 246 241 236 234 235 240 235 235 234 238 239 239 238 238 238 239 240 244 247
187 177 146 140 152 168 188 239 235 242 246 243 243 246 246 241 232 233 243 249 240 234 231 234 239 238 236 237 237 237 243 245 254
170 175 199 197 216 261 292 285 266 263 257 250 246 246 250 244 236 242 240 241 236 236 233 230 234 238 239 236 238 243 249 251 252
172 190 204 226 253 265 274 278 277 275 267 255 249 249 252 254 244 239 235 234 233 233 234 232 232 237 242 244 240 244 250 251 251
170 190 227 259 267 274 287 287 277 267 267 264 250 248 256 258 254 246 239 237 231 229 223 227 228 233 237 243 238 240 245 244 246
231 245 247 258 273 279 282 291 287 280 271 269 266 247 251 262 260 247 244 238 230 226 226 226 228 225 226 232 238 242 243 245 247
281 272 261 263 267 277 280 285 285 286 274 271 266 247 250 257 247 247 239 240 237 227 224 225 225 228 229 230 232 237 240 239 241
293 281 265 260 264 274 280 285 279 283 278 273 268 242 247 256 243 238 229 222 213 213 218 225 226 226 227 228 227 226 224 227 228
299 283 271 269 270 277 291 292 284 283 269 262 268 247 233 243 241 236 247 244 244 237 240 239 235 231 229 224 219 215 211 206 204
296 287 273 270 277 284 286 288 289 272 265 263 261 235 214 227 231 232 246 245 243 243 239 237 242 244 241 230 212 202 206 200 192
298 287 276 273 282 289 284 293 288 271 280 270 256 212 207 215 228 221 231 234 229 239 248 238 234 237 235 215 207 198 186 173 160
296 290 279 274 282 283 289 289 282 275 264 270 226 198 189 190 179 175 165 144 125 107 86 97 199 229 211 173 147 135 132 126 117
Wind_Speed_850mb
24 39 42 42 46 44 42 40 41 41 40 38 37 35 32 29 33 24 20 20 20 17 18 18 23 23 17 18 19 19 20 15 10
8 25 39 43 41 45 45 43 44 43 40 38 39 37 37 34 32 31 26 26 24 19 23 21 19 22 21 18 24 23 19 14 14
9 4 14 33 40 42 43 43 44 41 40 41 40 36 36 35 33 30 30 27 30 25 22 24 24 22 22 23 23 22 24 18 18
8 6 3 16 30 41 43 41 42 40 40 41 41 40 38 37 32 32 31 31 31 32 32 29 29 30 28 24 25 27 22 20 20
10 8 3 11 19 29 38 43 42 40 39 42 43 41 39 39 39 36 35 35 36 34 34 38 36 31 29 28 26 29 30 25 19
5 7 7 3 12 21 30 37 42 39 39 39 37 37 39 39 40 41 43 42 39 36 37 37 36 37 37 31 30 26 29 33 28
4 5 5 5 8 14 24 30 35 35 34 35 38 38 38 42 44 45 44 43 45 41 41 45 44 40 41 36 36 31 29 29 29
9 5 5 6 6 9 15 19 26 32 35 35 38 43 41 44 45 46 43 45 48 45 44 45 49 47 39 37 36 34 29 26 26
13 10 4 2 5 8 5 10 13 20 30 36 38 44 51 51 44 43 50 46 46 50 48 48 46 52 46 41 40 39 41 33 29
13 9 8 4 1 1 3 4 12 14 17 21 31 47 47 41 49 56 61 53 47 49 50 50 49 46 48 48 45 47 48 40 39
15 14 5 5 4 5 6 8 10 17 23 26 29 33 37 40 46 53 57 59 55 47 46 50 55 51 47 44 45 53 54 51 48
12 11 8 7 8 11 14 17 18 21 24 29 33 38 37 37 40 51 57 62 57 54 49 50 51 54 56 52 46 53 52 47 44
10 9 7 8 12 12 15 18 20 27 31 32 37 33 34 33 36 43 54 59 61 52 46 48 45 47 53 53 45 53 47 43 43
5 10 13 13 14 17 18 20 27 28 28 29 32 33 34 30 33 41 50 50 50 56 52 48 53 48 51 50 51 45 44 44 44
18 21 21 19 17 20 19 19 23 29 27 24 26 26 27 25 24 33 34 38 43 47 52 56 55 55 53 54 51 48 44 41 36
20 22 23 21 20 21 21 20 25 33 26 21 26 23 25 20 26 29 29 25 25 31 42 51 56 57 55 53 50 44 39 34 28
16 19 22 22 21 22 23 21 28 29 23 22 24 25 29 22 26 18 18 20 20 26 37 41 39 38 43 48 47 42 38 35 33
18 20 22 23 23 23 24 24 27 22 21 24 26 28 27 26 23 21 22 24 26 29 32 35 38 43 49 50 52 45 40 40 41
20 22 21 22 22 24 25 22 26 22 20 22 23 29 28 25 20 14 12 12 15 15 23 34 40 42 49 54 50 46 49 46 45
22 19 19 19 23 26 26 23 24 17 19 20 21 31 25 21 18 13 7 12 21 29 26 14 12 18 27 41 49 52 55 51 41
Wind_Direction_850mb
233 218 218 217 216 213 212 208 206 204 207 208 212 220 220 215 212 213 206 211 207 203 209 219 218 225 235 217 209 215 225 232 229
206 219 218 218 216 216 217 215 211 208 207 212 210 216 222 221 222 214 215 212 217 222 215 215 220 218 221 220 227 233 238 228 243
100 147 211 216 221 219 219 221 220 217 216 215 211 208 217 220 222 229 225 221 220 220 218 220 217 221 228 228 232 236 240 235 252
88 95 184 219 220 221 222 220 217 221 213 213 211 211 211 216 217 221 227 226 230 234 240 234 232 239 231 233 232 232 237 229 227
69 40 306 235 218 214 216 216 215 215 217 212 214 213 213 220 228 219 222 228 231 235 234 242 240 238 236 240 230 237 237 240 240
85 36 16 141 197 208 212 210 209 213 218 220 216 219 220 222 226 226 226 226 229 230 234 235 239 239 243 240 233 242 245 245 240
134 69 68 119 157 196 205 206 208 213 217 224 222 221 225 226 229 231 232 231 231 233 234 239 237 241 243 241 233 243 251 246 232
175 156 103 108 156 178 194 206 212 223 228 229 226 223 228 234 237 234 233 233 235 238 236 240 237 239 241 240 237 242 249 236 234
178 163 164 133 114 119 162 202 243 254 256 251 248 246 246 241 236 234 235 240 235 235 234 238 239 239 238 238 238 239 240 244 247
187 177 146 140 152 168 188 239 235 242 246 243 243 246 246 241 232 233 243 249 240 234 231 234 239 238 236 237 237 237 243 245 254
170 175 199 197 216 261 292 285 266 263 257 250 246 246 250 244 236 242 240 241 236 236 233 230 234 238 239 236 238 243 249 251 252
172 190 204 226 253 265 274 278 277 275 267 255 249 249 252 254 244 239 235 234 233 233 234 232 232 237 242 244 240 244 250 251 251
170 190 227 259 267 274 287 287 277 267 267 264 250 248 256 258 254 246 239 237 231 229 223 227 228 233 237 243 238 240 245 244 246
231 245 247 258 273 279 282 291 287 280 271 269 266 247 251 262 260 247 244 238 230 226 226 226 228 225 226 232 238 242 243 245 247
281 272 261 263 267 277 280 285 285 286 274 271 266 247 250 257 247 247 239 240 237 227 224 225 225 228 229 230 232 237 240 239 241
293 281 265 260 264 274 280 285 279 283 278 273 268 242 247 256 243 238 229 222 213 213 218 225 226 226 227 228 227 226 224 227 228
299 283 271 269 270 277 291 292 284 283 269 262 268 247 233 243 241 236 247 244 244 237 240 239 235 231 229 224 219 215 211 206 204
296 287 273 270 277 284 286 288 289 272 265 263 261 235 214 227 231 232 246 245 243 243 239 237 242 244 241 230 212 202 206 200 192
298 287 276 273 282 289 284 293 288 271 280 270 256 212 207 215 228 221 231 234 229 239 248 238 234 237 235 215 207 198 186 173 160
296 290 279 274 282 283 289 289 282 275 264 270 226 198 189 190 179 175 165 144 125 107 86 97 199 229 211 173 147 135 132 126 117